Wetterdaten: Woche 12.09.05 - 18.09.05 (KW37)
Datum Zeit Temperatur Luftfeuchte Luftdruck Niederschlag Windrichtung Wind
12.09.2005 00:00 14,0 C 96 % 1011 hPa 0,0 l/m W 2,0 km/h (1 Bft)
12.09.2005 01:00 14,1 C 98 % 1011 hPa 0,0 l/m N 0,0 km/h (0 Bft)
12.09.2005 02:00 14,4 C 99 % 1012 hPa 0,0 l/m N 0,1 km/h (0 Bft)
12.09.2005 03:00 14,5 C 99 % 1012 hPa 0,0 l/m N 0,0 km/h (0 Bft)
12.09.2005 04:00 14,4 C 99 % 1012 hPa 0,0 l/m N 0,0 km/h (0 Bft)
12.09.2005 05:00 14,2 C 97 % 1012 hPa 1,0 l/m W 7,8 km/h (2 Bft)
12.09.2005 06:00 13,1 C 94 % 1013 hPa 1,0 l/m W 4,0 km/h (1 Bft)
12.09.2005 07:00 12,8 C 97 % 1013 hPa 1,0 l/m SW 3,5 km/h (1 Bft)
12.09.2005 08:00 12,9 C 98 % 1014 hPa 0,0 l/m S-SW 3,5 km/h (1 Bft)
12.09.2005 09:00 13,5 C 100 % 1015 hPa 0,0 l/m S 4,3 km/h (1 Bft)
12.09.2005 10:00 14,4 C 100 % 1015 hPa 0,0 l/m S 2,7 km/h (1 Bft)
12.09.2005 11:00 15,6 C 96 % 1016 hPa 0,0 l/m S 6,6 km/h (2 Bft)
12.09.2005 12:00 16,8 C 85 % 1016 hPa 0,0 l/m W-SW 6,5 km/h (2 Bft)
12.09.2005 13:00 18,2 C 74 % 1016 hPa 0,0 l/m W-SW 2,3 km/h (1 Bft)
12.09.2005 14:00 19,5 C 66 % 1016 hPa 0,0 l/m W-SW 4,0 km/h (1 Bft)
12.09.2005 15:00 19,7 C 66 % 1016 hPa 0,0 l/m W-SW 4,5 km/h (1 Bft)
12.09.2005 16:00 19,5 C 64 % 1016 hPa 0,0 l/m W-SW 2,3 km/h (1 Bft)
12.09.2005 17:00 19,0 C 66 % 1017 hPa 0,0 l/m SW 2,2 km/h (1 Bft)
12.09.2005 18:00 18,8 C 66 % 1017 hPa 0,0 l/m W-SW 0,8 km/h (0 Bft)
12.09.2005 19:00 16,7 C 76 % 1017 hPa 0,0 l/m N 0,0 km/h (0 Bft)
12.09.2005 20:00 15,0 C 85 % 1018 hPa 0,0 l/m N 0,0 km/h (0 Bft)
12.09.2005 21:00 14,5 C 90 % 1019 hPa 0,0 l/m N 0,0 km/h (0 Bft)
12.09.2005 22:00 14,4 C 94 % 1020 hPa 0,0 l/m N 0,0 km/h (0 Bft)
12.09.2005 23:00 14,7 C 95 % 1020 hPa 2,0 l/m N 0,0 km/h (0 Bft)
13.09.2005 00:00 14,6 C 97 % 1020 hPa 2,0 l/m S 0,0 km/h (0 Bft)
13.09.2005 01:00 14,4 C 98 % 1020 hPa 0,0 l/m N 0,0 km/h (0 Bft)
13.09.2005 02:00 14,3 C 99 % 1021 hPa 0,0 l/m N 0,0 km/h (0 Bft)
13.09.2005 03:00 14,1 C 99 % 1021 hPa 0,0 l/m N 0,0 km/h (0 Bft)
13.09.2005 04:00 13,9 C 100 % 1021 hPa 0,0 l/m S 1,0 km/h (0 Bft)
13.09.2005 05:00 13,8 C 100 % 1021 hPa 0,0 l/m S-SO 1,5 km/h (1 Bft)
13.09.2005 06:00 13,8 C 100 % 1022 hPa 0,0 l/m S 4,3 km/h (1 Bft)
13.09.2005 07:00 13,8 C 100 % 1022 hPa 0,0 l/m S-SO 1,8 km/h (1 Bft)
13.09.2005 08:00 13,8 C 100 % 1022 hPa 0,0 l/m S 2,3 km/h (1 Bft)
13.09.2005 09:00 14,2 C 100 % 1023 hPa 0,0 l/m S 1,3 km/h (1 Bft)
13.09.2005 10:00 15,0 C 100 % 1023 hPa 0,0 l/m S 2,9 km/h (1 Bft)
13.09.2005 11:00 16,0 C 98 % 1023 hPa 0,0 l/m SO 1,6 km/h (1 Bft)
13.09.2005 12:00 16,4 C 97 % 1023 hPa 0,0 l/m N 0,0 km/h (0 Bft)
13.09.2005 13:00 17,6 C 93 % 1023 hPa 0,0 l/m N-NO 1,6 km/h (1 Bft)
13.09.2005 14:00 18,2 C 85 % 1023 hPa 0,0 l/m N-NO 6,6 km/h (2 Bft)
13.09.2005 15:00 18,3 C 86 % 1023 hPa 0,0 l/m N 11,4 km/h (2 Bft)
13.09.2005 16:00 18,4 C 80 % 1023 hPa 0,0 l/m N-NO 11,4 km/h (2 Bft)
13.09.2005 17:00 18,0 C 80 % 1023 hPa 0,0 l/m N-NO 13,8 km/h (3 Bft)
13.09.2005 18:00 17,7 C 81 % 1023 hPa 0,0 l/m NO 11,3 km/h (2 Bft)
13.09.2005 19:00 16,7 C 85 % 1024 hPa 0,0 l/m N-NO 9,6 km/h (2 Bft)
13.09.2005 20:00 16,1 C 88 % 1024 hPa 0,0 l/m NO 4,5 km/h (1 Bft)
13.09.2005 21:00 15,6 C 91 % 1025 hPa 0,0 l/m N-NW 6,2 km/h (2 Bft)
13.09.2005 22:00 15,4 C 95 % 1025 hPa 0,0 l/m N-NW 7,1 km/h (2 Bft)
13.09.2005 23:00 15,3 C 96 % 1025 hPa 0,0 l/m NW 2,0 km/h (1 Bft)
14.09.2005 00:00 15,1 C 96 % 1025 hPa 0,0 l/m N 4,4 km/h (1 Bft)
14.09.2005 01:00 15,0 C 96 % 1025 hPa 0,0 l/m N-NO 0,5 km/h (0 Bft)
14.09.2005 02:00 14,6 C 97 % 1025 hPa 0,0 l/m N 0,0 km/h (0 Bft)
14.09.2005 03:00 14,0 C 97 % 1025 hPa 0,0 l/m N 0,0 km/h (0 Bft)
14.09.2005 04:00 13,3 C 98 % 1024 hPa 0,0 l/m W-NW 3,6 km/h (1 Bft)
14.09.2005 05:00 13,1 C 100 % 1024 hPa 0,0 l/m W-NW 1,8 km/h (1 Bft)
14.09.2005 06:00 13,2 C 100 % 1024 hPa 0,0 l/m W-NW 0,4 km/h (0 Bft)
14.09.2005 07:00 13,5 C 100 % 1025 hPa 0,0 l/m N 0,0 km/h (0 Bft)
14.09.2005 08:00 13,8 C 100 % 1025 hPa 0,0 l/m W-NW 0,4 km/h (0 Bft)
14.09.2005 09:00 14,4 C 100 % 1025 hPa 0,0 l/m W 0,9 km/h (0 Bft)
14.09.2005 10:00 15,1 C 100 % 1026 hPa 0,0 l/m S 4,2 km/h (1 Bft)
14.09.2005 11:00 16,2 C 91 % 1026 hPa 0,0 l/m S-SW 9,8 km/h (2 Bft)
14.09.2005 12:00 17,0 C 83 % 1026 hPa 0,0 l/m S 7,9 km/h (2 Bft)
14.09.2005 13:00 17,8 C 80 % 1025 hPa 0,0 l/m S-SO 9,3 km/h (2 Bft)
14.09.2005 14:00 18,0 C 77 % 1025 hPa 0,0 l/m S 10,2 km/h (2 Bft)
14.09.2005 15:00 18,5 C 75 % 1024 hPa 0,0 l/m W-SW 7,8 km/h (2 Bft)
14.09.2005 16:00 18,8 C 72 % 1024 hPa 0,0 l/m W 7,6 km/h (2 Bft)
14.09.2005 17:00 18,8 C 71 % 1024 hPa 0,0 l/m W 0,8 km/h (0 Bft)
14.09.2005 18:00 18,0 C 74 % 1024 hPa 0,0 l/m W 1,7 km/h (1 Bft)
14.09.2005 19:00 17,1 C 80 % 1024 hPa 0,0 l/m W-SW 0,3 km/h (0 Bft)
14.09.2005 20:00 15,7 C 84 % 1025 hPa 0,0 l/m W-SW 2,8 km/h (1 Bft)
14.09.2005 21:00 14,7 C 88 % 1025 hPa 0,0 l/m W-SW 2,5 km/h (1 Bft)
14.09.2005 22:00 14,2 C 87 % 1025 hPa 0,0 l/m W 4,0 km/h (1 Bft)
14.09.2005 23:00 13,7 C 87 % 1025 hPa 0,0 l/m W-SW 3,0 km/h (1 Bft)
15.09.2005 00:00 12,8 C 88 % 1025 hPa 0,0 l/m N 0,0 km/h (0 Bft)
15.09.2005 01:00 12,2 C 92 % 1025 hPa 0,0 l/m W-SW 3,5 km/h (1 Bft)
15.09.2005 02:00 12,9 C 92 % 1024 hPa 0,0 l/m W-SW 7,2 km/h (2 Bft)
15.09.2005 03:00 13,3 C 93 % 1024 hPa 0,0 l/m SW 7,1 km/h (2 Bft)
15.09.2005 04:00 13,1 C 94 % 1024 hPa 0,0 l/m SW 6,7 km/h (2 Bft)
15.09.2005 05:00 13,7 C 92 % 1023 hPa 0,0 l/m W-SW 7,0 km/h (2 Bft)
15.09.2005 06:00 13,4 C 91 % 1023 hPa 0,0 l/m W-SW 10,3 km/h (2 Bft)
15.09.2005 07:00 13,7 C 91 % 1023 hPa 0,0 l/m W-SW 8,0 km/h (2 Bft)
15.09.2005 08:00 14,1 C 88 % 1023 hPa 0,0 l/m S-SW 5,3 km/h (1 Bft)
15.09.2005 09:00 14,2 C 92 % 1023 hPa 0,0 l/m S 3,3 km/h (1 Bft)
15.09.2005 10:00 15,8 C 83 % 1023 hPa 0,0 l/m S 2,3 km/h (1 Bft)
15.09.2005 11:00 17,8 C 72 % 1023 hPa 0,0 l/m SW 3,5 km/h (1 Bft)
15.09.2005 12:00 18,6 C 70 % 1022 hPa 0,0 l/m S-SW 3,8 km/h (1 Bft)
15.09.2005 13:00 19,3 C 65 % 1021 hPa 0,0 l/m S-SW 2,9 km/h (1 Bft)
15.09.2005 14:00 20,5 C 62 % 1021 hPa 0,0 l/m S-SW 2,2 km/h (1 Bft)
15.09.2005 15:00 21,0 C 58 % 1020 hPa 0,0 l/m S-SO 1,6 km/h (1 Bft)
15.09.2005 16:00 20,6 C 58 % 1019 hPa 0,0 l/m SW 1,9 km/h (1 Bft)
15.09.2005 17:00 19,7 C 65 % 1018 hPa 0,0 l/m W-SW 6,6 km/h (2 Bft)
15.09.2005 18:00 19,2 C 68 % 1018 hPa 0,0 l/m W-SW 5,4 km/h (1 Bft)
15.09.2005 19:00 18,5 C 71 % 1017 hPa 0,0 l/m W-SW 6,6 km/h (2 Bft)
15.09.2005 20:00 17,8 C 75 % 1017 hPa 0,0 l/m S-SW 7,8 km/h (2 Bft)
15.09.2005 21:00 16,5 C 78 % 1017 hPa 0,0 l/m SW 9,0 km/h (2 Bft)
15.09.2005 22:00 16,0 C 81 % 1016 hPa 0,0 l/m S-SW 11,5 km/h (2 Bft)
15.09.2005 23:00 15,5 C 83 % 1016 hPa 0,0 l/m S 10,0 km/h (2 Bft)
16.09.2005 00:00 14,9 C 87 % 1015 hPa 0,0 l/m S-SW 11,1 km/h (2 Bft)
16.09.2005 01:00 14,5 C 90 % 1014 hPa 0,0 l/m S-SW 14,1 km/h (3 Bft)
16.09.2005 02:00 14,4 C 92 % 1014 hPa 0,0 l/m S-SW 12,3 km/h (3 Bft)
16.09.2005 03:00 14,5 C 92 % 1013 hPa 0,0 l/m S 10,7 km/h (2 Bft)
16.09.2005 04:00 14,3 C 94 % 1012 hPa 0,0 l/m S 10,3 km/h (2 Bft)
16.09.2005 05:00 15,0 C 89 % 1011 hPa 0,0 l/m S-SW 14,8 km/h (3 Bft)
16.09.2005 06:00 15,4 C 85 % 1011 hPa 0,0 l/m S 14,4 km/h (3 Bft)
16.09.2005 07:00 15,0 C 86 % 1010 hPa 0,0 l/m S-SW 16,2 km/h (3 Bft)
16.09.2005 08:00 15,5 C 85 % 1010 hPa 0,0 l/m S 17,2 km/h (3 Bft)
16.09.2005 09:00 17,5 C 73 % 1009 hPa 0,0 l/m S-SW 17,6 km/h (3 Bft)
16.09.2005 10:00 18,8 C 67 % 1009 hPa 0,0 l/m SW 19,6 km/h (3 Bft)
16.09.2005 11:00 19,8 C 64 % 1009 hPa 0,0 l/m SW 17,4 km/h (3 Bft)
16.09.2005 12:00 20,8 C 59 % 1008 hPa 0,0 l/m S 4,4 km/h (1 Bft)
16.09.2005 13:00 21,1 C 55 % 1008 hPa 0,0 l/m W-SW 12,4 km/h (3 Bft)
16.09.2005 14:00 20,9 C 55 % 1007 hPa 0,0 l/m W-SW 7,5 km/h (2 Bft)
16.09.2005 15:00 19,6 C 61 % 1007 hPa 0,0 l/m W 12,3 km/h (3 Bft)
16.09.2005 16:00 18,0 C 71 % 1007 hPa 0,0 l/m W 10,3 km/h (2 Bft)
16.09.2005 17:00 16,2 C 82 % 1007 hPa 0,0 l/m W-SW 9,2 km/h (2 Bft)
16.09.2005 18:00 16,2 C 81 % 1007 hPa 0,0 l/m W-SW 12,4 km/h (3 Bft)
16.09.2005 19:00 15,6 C 84 % 1007 hPa 2,0 l/m W-SW 9,5 km/h (2 Bft)
16.09.2005 20:00 13,1 C 91 % 1008 hPa 3,0 l/m NW 13,0 km/h (3 Bft)
16.09.2005 21:00 11,6 C 96 % 1010 hPa 6,0 l/m N-NW 13,4 km/h (3 Bft)
16.09.2005 22:00 11,1 C 99 % 1010 hPa 1,0 l/m N 13,5 km/h (3 Bft)
16.09.2005 23:00 10,4 C 98 % 1010 hPa 0,0 l/m N 17,1 km/h (3 Bft)
17.09.2005 00:00 9,5 C 96 % 1011 hPa 0,0 l/m N 15,4 km/h (3 Bft)
17.09.2005 01:00 8,5 C 95 % 1012 hPa 1,0 l/m N 11,0 km/h (2 Bft)
17.09.2005 02:00 8,0 C 96 % 1012 hPa 2,0 l/m N-NW 8,4 km/h (2 Bft)
17.09.2005 03:00 7,6 C 97 % 1012 hPa 1,0 l/m N 6,8 km/h (2 Bft)
17.09.2005 04:00 7,7 C 99 % 1013 hPa 1,0 l/m N-NW 6,1 km/h (2 Bft)
17.09.2005 05:00 8,0 C 100 % 1013 hPa 0,0 l/m N 8,6 km/h (2 Bft)
17.09.2005 06:00 8,1 C 100 % 1014 hPa 0,0 l/m N-NO 7,2 km/h (2 Bft)
17.09.2005 07:00 8,0 C 98 % 1014 hPa 0,0 l/m NO 5,6 km/h (1 Bft)
17.09.2005 08:00 8,1 C 98 % 1015 hPa 1,0 l/m N-NO 1,4 km/h (1 Bft)
17.09.2005 09:00 8,4 C 98 % 1016 hPa 1,0 l/m N-NO 5,9 km/h (2 Bft)
17.09.2005 10:00 8,7 C 97 % 1017 hPa 0,0 l/m N 12,2 km/h (2 Bft)
17.09.2005 11:00 9,2 C 89 % 1017 hPa 0,0 l/m N 13,8 km/h (3 Bft)
17.09.2005 12:00 9,6 C 82 % 1017 hPa 0,0 l/m N-NO 14,8 km/h (3 Bft)
17.09.2005 13:00 10,9 C 68 % 1018 hPa 0,0 l/m N-NO 18,4 km/h (3 Bft)
17.09.2005 14:00 11,0 C 66 % 1018 hPa 0,0 l/m N-NO 15,7 km/h (3 Bft)
17.09.2005 15:00 11,6 C 59 % 1018 hPa 0,0 l/m N-NO 14,3 km/h (3 Bft)
17.09.2005 16:00 11,9 C 56 % 1018 hPa 0,0 l/m N 16,9 km/h (3 Bft)
17.09.2005 17:00 11,5 C 57 % 1018 hPa 0,0 l/m N-NO 15,5 km/h (3 Bft)
17.09.2005 18:00 11,0 C 58 % 1019 hPa 0,0 l/m N-NO 13,2 km/h (3 Bft)
17.09.2005 19:00 10,0 C 65 % 1019 hPa 0,0 l/m N 4,0 km/h (1 Bft)
17.09.2005 20:00 8,8 C 74 % 1020 hPa 0,0 l/m N-NW 5,3 km/h (1 Bft)
17.09.2005 21:00 7,7 C 76 % 1020 hPa 0,0 l/m N-NW 10,5 km/h (2 Bft)
17.09.2005 22:00 6,6 C 80 % 1020 hPa 0,0 l/m NW 8,7 km/h (2 Bft)
17.09.2005 23:00 5,5 C 85 % 1021 hPa 0,0 l/m NW 10,3 km/h (2 Bft)
18.09.2005 00:00 5,4 C 86 % 1021 hPa 0,0 l/m N 11,7 km/h (2 Bft)
18.09.2005 01:00 5,3 C 87 % 1021 hPa 0,0 l/m N 11,9 km/h (2 Bft)
18.09.2005 02:00 5,4 C 87 % 1021 hPa 0,0 l/m N 8,5 km/h (2 Bft)
18.09.2005 03:00 5,0 C 89 % 1021 hPa 0,0 l/m N 11,3 km/h (2 Bft)
18.09.2005 04:00 4,7 C 92 % 1021 hPa 0,0 l/m N-NW 11,2 km/h (2 Bft)
18.09.2005 05:00 4,9 C 96 % 1021 hPa 0,0 l/m N-NO 12,7 km/h (3 Bft)
18.09.2005 06:00 5,5 C 96 % 1021 hPa 0,0 l/m N-NO 14,5 km/h (3 Bft)
18.09.2005 07:00 5,8 C 95 % 1021 hPa 0,0 l/m N 14,6 km/h (3 Bft)
18.09.2005 08:00 6,1 C 94 % 1021 hPa 0,0 l/m N-NO 15,4 km/h (3 Bft)
18.09.2005 09:00 7,2 C 90 % 1022 hPa 0,0 l/m N-NO 15,6 km/h (3 Bft)
18.09.2005 10:00 8,2 C 85 % 1022 hPa 0,0 l/m N 17,3 km/h (3 Bft)
18.09.2005 11:00 8,6 C 84 % 1022 hPa 0,0 l/m N-NO 19,2 km/h (3 Bft)
18.09.2005 12:00 9,4 C 79 % 1022 hPa 0,0 l/m N-NO 20,9 km/h (4 Bft)
18.09.2005 13:00 9,7 C 77 % 1022 hPa 0,0 l/m NO 21,4 km/h (4 Bft)
18.09.2005 14:00 11,2 C 69 % 1022 hPa 0,0 l/m O-NO 23,8 km/h (4 Bft)
18.09.2005 15:00 12,3 C 59 % 1022 hPa 0,0 l/m O-NO 19,7 km/h (3 Bft)
18.09.2005 16:00 12,4 C 52 % 1022 hPa 0,0 l/m NO 19,4 km/h (3 Bft)
18.09.2005 17:00 12,5 C 46 % 1022 hPa 0,0 l/m NO 20,2 km/h (4 Bft)
18.09.2005 18:00 12,0 C 49 % 1022 hPa 0,0 l/m NO 19,0 km/h (3 Bft)
18.09.2005 19:00 10,6 C 51 % 1022 hPa 0,0 l/m O-NO 19,7 km/h (3 Bft)
18.09.2005 20:00 9,4 C 57 % 1023 hPa 0,0 l/m NO 13,8 km/h (3 Bft)
18.09.2005 21:00 8,6 C 63 % 1023 hPa 0,0 l/m N-NO 11,2 km/h (2 Bft)
18.09.2005 22:00 8,0 C 69 % 1023 hPa 0,0 l/m N 12,8 km/h (3 Bft)
18.09.2005 23:00 7,7 C 72 % 1023 hPa 0,0 l/m N-NO 12,8 km/h (3 Bft)
Min-Datum _ 18.09.05 18.09.05 16.09.05 - - 12.09.05
_ Min-Zeit 04:33 17:18 19:00 - - 00:00
Minimum _ 4,6 C 43 % 1006 hPa - - 0,0 km/h (0 Bft)
Max-Datum _ 16.09.05 12.09.05 14.09.05 16.09.05 - 18.09.05
_ Max-Zeit 14:29 09:08 10:16 21:54 - 16:36
Maximum _ 21,5 C 100 % 1026 hPa 6,0 l/m - 52,4 km/h
NO (7 Bft)
Durchschnitt _ 13,8 C 84 % 1019 hPa #26,0 l/m N 7,8 km/h (2 Bft)

Durchschnitt Minimum Temp.13,4 C
Durchschnitt Maximum Temp.14,1 C